Temp_Advection
nan nan nan nan nan nan nan nan nan nan nan nan nan nan nan nan nan nan nan nan nan nan nan nan nan nan nan nan nan nan nan nan nan nan nan nan nan nan nan nan nan nan nan nan nan
nan -0 -0 0 0 -0 -0 -0 -0 0 -0 -0 -0 -0 -0 -0 -0 -0 -0 -0 0 0 -0 0 -0 0 -0 -0 0 -0 0 -0 -0 0 -0 -0 -2 -1 -0 -0 -0 -0 -0 -0 nan
nan 0 -0 -0 0 0 0 0 -0 -0 0 -0 -0 -0 -0 -0 0 0 -0 0 -0 -0 -0 -0 -0 -0 -0 -0 0 0 -0 -0 -0 -0 -0 -1 -1 -1 -1 -0 -0 -0 -0 -1 nan
nan -0 -0 0 0 0 -0 -0 0 0 0 -0 -0 -0 -0 -0 0 0 -0 0 -0 -0 -0 -0 -0 -0 -0 -0 -0 0 -1 -0 -0 0 -0 -0 -1 -0 -0 -0 -0 -0 -0 -0 nan
nan 0 -0 0 0 0 -0 -0 -0 0 -0 -0 -0 -0 -0 -0 -0 0 -0 -0 -0 -0 -0 -0 -0 -1 -0 -0 -1 -0 -1 -1 -0 -0 -0 -0 -1 -1 -1 -0 -0 -0 -0 -0 nan
nan 0 0 0 0 0 0 0 -0 -0 0 -0 -0 -0 0 -0 0 -0 -0 -0 -0 -0 -0 0 0 0 -0 0 -0 -1 -0 -1 -0 0 0 -0 -0 -0 -1 -1 -0 -0 -0 -0 nan
nan 0 0 0 -0 0 0 0 0 0 0 -0 -0 -0 -0 -0 -0 -0 -0 0 0 0 -0 0 0 0 -1 0 -1 0 -0 -0 -0 -1 -0 -0 -1 -0 -0 -0 -0 -0 -1 -1 nan
nan 0 0 0 0 0 0 0 0 0 0 0 -0 -0 -0 0 0 -0 0 0 0 0 0 0 0 0 -0 -0 0 -0 -0 0 0 0 -1 -1 0 1 -0 -0 -0 -1 -0 -0 nan
nan 0 0 0 0 0 0 0 0 0 0 0 -0 -0 -0 -0 -0 -0 -0 0 0 -0 -0 -0 -0 0 0 -0 -0 0 -0 0 0 -0 -1 -0 0 -0 0 0 -0 -0 -0 -0 nan
nan 0 0 -0 -0 0 0 0 0 0 0 -0 0 -0 -0 -0 -0 -0 -0 -0 -0 -0 0 0 -0 -0 -0 0 -0 -0 -0 -0 -0 -0 -1 -0 0 -1 0 -0 -0 0 -0 -0 nan
nan 0 0 -0 -0 0 0 0 0 0 -0 -0 0 -0 -0 0 -0 -0 -0 -0 -0 0 0 0 -0 -0 -1 -0 -1 -0 -0 0 -0 -0 -1 -0 -1 -1 1 0 -0 -0 0 0 nan
nan -0 0 0 -0 0 0 0 0 0 -0 -1 0 -0 -0 -0 -0 -0 -0 -0 0 0 0 -1 -0 -1 -1 -0 -0 0 0 0 0 -0 -0 -0 -0 -0 0 -1 -1 -0 -0 -0 nan
nan -0 -0 0 0 0 0 0 0 0 -0 -1 -0 -0 -0 -0 -0 -0 -0 0 -0 0 0 -0 -1 -1 -0 -0 -0 0 -0 -0 -0 0 -0 -1 0 0 -0 -0 -1 0 -0 -0 nan
nan -0 -0 -0 0 0 0 0 -0 1 -0 -1 0 -0 -0 0 -0 -0 -0 0 0 0 -0 -0 -1 -0 0 0 0 -0 -0 -0 -1 -1 -0 -0 0 -0 -0 0 0 -0 -1 0 nan
nan -0 -0 -0 -0 -0 0 0 -0 -0 0 -0 -0 -0 0 0 0 -0 -0 0 0 -0 0 -0 -0 0 -0 -0 -0 -0 -0 1 0 0 0 0 0 0 0 -0 -0 -1 0 0 nan
nan -0 -0 -0 -0 0 -0 -0 -0 -0 -0 -0 0 0 0 0 -0 0 1 0 0 0 0 -0 -1 0 -0 -0 -0 0 -0 -1 -0 0 0 0 0 0 -0 -1 -1 -0 -0 -1 nan
nan 0 -0 -0 0 0 -0 -0 -0 0 -0 -0 0 0 0 -0 0 0 0 0 0 -0 -0 -0 -0 -0 -0 0 -0 -1 -1 -0 -0 -0 -0 -0 0 -1 -1 -1 -1 -0 -2 0 nan
nan 0 -0 -0 -0 0 0 -0 0 -0 -0 0 -0 0 0 -0 -0 0 0 0 0 -0 -0 -0 -1 0 -0 -0 0 -0 -1 -0 0 0 -0 0 -0 -1 -0 1 1 0 -0 1 nan
nan -0 -0 -0 -0 0 -0 -0 -0 -1 -0 -0 0 -0 -0 -0 0 -0 0 -0 -0 -0 -0 -0 -1 -0 0 -0 -0 0 -0 -0 0 0 0 -0 -1 -0 -4 0 1 2 1 -0 nan
nan -1 -0 -0 0 -0 -1 -0 -1 -0 -0 -0 -0 -0 -0 -0 0 0 -0 -0 -0 -0 -0 -0 -0 -0 -1 0 -0 0 0 -0 -0 0 0 -0 -0 -1 -3 -1 0 0 2 1 nan
nan -1 0 -0 0 0 -0 -1 -1 -1 -0 -0 -0 0 -0 0 0 0 -0 -0 -0 -0 -0 -0 0 -1 0 0 0 -0 -0 -0 -0 0 0 0 0 -0 -0 -0 -0 -1 1 2 nan
nan -0 0 -0 0 0 -0 -1 -0 -0 -0 -0 -0 0 -0 -0 0 0 -0 0 0 0 -0 0 -0 -0 -0 -0 0 -0 -0 -0 0 -0 -0 0 0 0 0 -0 -1 -1 -1 -0 nan
nan -1 -0 1 -0 -0 -1 -1 -0 -0 -0 -0 -0 0 0 0 0 0 0 -0 0 -0 0 0 -0 -0 -1 -0 -0 0 0 -1 -0 0 0 -0 0 -0 -0 -0 -1 -1 -0 0 nan
nan -0 -1 0 1 -0 0 -0 -1 -1 -0 0 0 0 -0 0 0 0 0 0 -0 0 0 -1 -0 -0 0 -0 -0 -0 -0 0 -1 -0 -0 0 -0 -0 0 0 -1 -1 -0 -0 nan
nan -0 -0 -0 -0 -0 -0 -0 -0 -1 -0 -1 -0 0 0 -0 0 -0 0 0 -0 -0 -0 -0 0 -0 -0 -0 -0 -0 0 -0 -0 -0 -0 0 -0 -0 0 1 -0 -1 -0 -0 nan
nan -0 -0 -0 -0 -0 -0 -0 -0 -0 -0 -0 -0 -1 0 0 -0 0 -0 -0 0 0 -0 -0 0 0 -0 -0 -0 -0 -0 -0 -0 -1 -0 0 -0 -0 -0 -0 -0 -0 -0 -0 nan
nan nan nan nan nan nan nan nan nan nan nan nan nan nan nan nan nan nan nan nan nan nan nan nan nan nan nan nan nan nan nan nan nan nan nan nan nan nan nan nan nan nan nan nan nan
Wind_Speed
16 15 14 14 13 13 13 12 11 9 8 7 7 7 8 8 7 8 6 6 6 3 3 8 9 5 4 14 7 6 1 4 3 2 10 23 16 22 20 31 17 4 27 26 30
18 16 16 15 13 13 13 12 10 9 9 7 6 7 7 7 7 8 5 7 6 3 3 7 7 3 6 5 6 3 1 3 3 6 12 23 31 25 15 23 20 25 24 28 34
19 16 15 16 15 15 14 12 10 9 9 8 7 6 7 5 2 3 4 6 5 3 5 8 2 7 4 6 2 3 4 2 6 9 5 25 27 28 27 16 36 31 32 33 31
21 18 16 15 15 15 14 13 10 8 8 8 7 7 4 2 5 4 4 3 5 6 9 6 5 6 3 4 5 1 10 8 8 6 2 11 30 24 27 18 38 38 33 29 28
22 19 16 15 15 15 14 13 8 8 8 7 7 5 3 2 1 1 6 4 7 10 13 4 4 8 3 5 10 6 6 13 9 12 5 11 21 13 21 33 36 35 30 31 29
23 18 17 16 14 14 14 12 7 7 6 6 6 4 2 2 4 5 6 6 10 13 14 4 3 6 4 5 4 9 11 16 14 19 13 19 26 19 25 34 35 32 32 31 33
23 18 17 16 15 15 13 8 6 5 4 6 4 2 5 3 3 6 2 8 10 15 11 3 10 2 11 2 12 6 4 7 2 24 7 13 13 10 29 31 30 31 30 32 32
24 20 19 17 16 14 12 7 5 4 4 5 3 2 4 4 4 4 3 11 12 8 1 6 5 4 4 4 1 7 4 1 8 6 17 10 8 15 19 28 27 29 29 30 29
25 22 19 17 16 13 10 5 5 4 3 2 1 2 3 5 9 7 3 11 7 2 4 3 4 1 0 3 2 3 4 8 1 5 11 7 3 4 10 2 23 26 24 26 30
26 23 19 17 16 12 6 5 6 4 3 1 3 5 5 5 7 13 10 5 2 2 4 2 1 2 2 3 5 5 3 1 9 10 16 12 4 6 8 9 19 21 23 28 35
24 24 20 15 14 8 7 4 7 2 12 9 9 11 4 2 5 9 10 11 10 6 3 2 4 6 11 7 5 4 3 5 3 11 9 9 11 13 24 17 14 13 19 32 34
22 23 21 13 9 3 8 7 7 7 8 15 14 18 13 9 6 8 9 5 4 5 1 6 6 11 8 6 7 6 7 7 5 3 4 7 9 9 17 23 21 17 19 25 34
22 22 20 11 3 2 3 7 8 12 2 10 9 10 4 14 7 12 12 9 2 4 4 6 11 7 6 9 8 4 7 6 7 4 5 9 3 4 8 13 25 19 22 23 36
21 22 20 10 1 4 6 7 9 8 4 6 4 5 11 6 4 13 16 9 3 8 5 6 14 8 7 7 7 4 8 6 10 7 5 8 4 5 8 8 10 23 27 25 26
20 21 17 12 7 2 5 2 6 4 3 4 4 3 9 11 2 10 19 15 6 6 5 8 4 4 7 8 6 10 14 14 10 9 5 8 0 6 10 10 12 20 29 25 18
19 19 17 11 4 2 1 3 6 5 2 3 6 6 6 10 10 11 19 11 4 4 2 9 10 4 8 8 5 6 4 5 3 4 2 7 6 4 10 15 16 21 16 30 25
18 15 16 8 7 1 3 5 5 3 3 5 5 5 5 5 1 6 7 4 4 2 4 8 6 5 7 5 5 7 6 3 3 3 5 7 4 12 11 20 22 26 25 34 32
19 14 11 5 8 3 4 4 2 4 6 4 5 4 7 6 5 7 6 5 5 5 1 2 7 4 2 5 6 1 7 5 5 4 6 5 6 8 16 24 36 42 45 29 28
20 13 5 5 10 7 2 3 6 5 4 8 5 5 4 5 6 6 7 8 8 8 7 3 5 4 5 4 7 4 1 7 6 3 3 4 8 6 25 6 21 32 32 32 35
22 15 3 9 13 7 4 5 4 3 6 5 1 5 8 7 6 7 8 6 6 8 9 7 3 4 7 5 2 7 4 1 3 2 4 4 2 8 25 8 15 12 21 29 38
16 8 8 12 11 3 3 6 6 15 12 5 1 2 3 4 7 8 10 4 3 3 7 3 4 8 2 5 8 2 1 4 4 5 5 0 3 7 13 15 17 21 25 17 14
8 2 13 16 5 2 3 5 4 13 28 10 3 4 5 2 4 5 11 9 7 5 6 2 5 1 4 8 5 7 7 5 5 5 1 4 1 6 10 19 27 25 27 29 21
18 7 13 16 3 4 6 6 11 10 8 6 5 6 2 2 2 4 5 1 8 5 8 4 2 4 10 6 7 5 4 5 4 3 4 4 3 1 13 19 26 27 27 31 26
7 3 4 7 9 3 5 6 5 13 8 8 7 4 2 3 5 4 2 3 5 7 8 6 3 7 6 5 4 6 10 6 7 4 5 5 7 3 9 12 23 25 29 25 22
4 4 3 3 4 5 2 4 6 7 3 13 6 5 4 3 3 6 2 4 5 8 4 6 4 4 6 5 2 5 9 8 5 5 5 6 7 8 6 13 22 24 24 21 17
5 4 8 10 10 2 2 3 4 7 6 7 3 12 3 5 3 5 7 3 6 1 4 2 3 3 2 2 4 6 10 12 6 9 8 8 4 7 12 23 23 25 26 20 13
5 8 5 7 5 3 3 4 8 10 6 10 5 4 9 4 5 4 15 12 10 9 4 5 5 3 3 2 4 5 4 5 8 5 12 6 6 7 11 19 21 23 29 18 10
Wind_Direction
358 355 353 350 348 347 345 342 337 330 329 326 317 319 309 300 285 263 237 163 158 215 107 140 147 113 109 148 138 303 90 299 294 108 143 144 132 145 134 135 146 177 141 158 163
358 355 354 352 348 347 344 341 334 328 327 322 315 319 311 304 300 269 203 171 151 140 149 153 121 323 147 139 144 130 78 264 276 51 130 144 129 132 132 141 124 129 137 142 157
358 355 350 350 349 348 346 342 334 326 326 323 315 310 313 321 17 47 192 204 190 196 180 179 148 163 102 106 158 132 224 287 304 344 236 140 141 144 136 148 150 149 146 145 161
355 353 351 352 349 347 345 341 336 328 327 323 319 303 308 291 154 70 20 208 207 184 170 182 117 154 117 143 170 167 266 274 286 336 352 161 130 153 151 166 154 153 154 158 159
354 353 353 352 350 344 343 339 333 332 331 328 321 311 313 247 240 350 325 215 213 173 167 153 69 129 204 192 135 189 249 254 284 284 278 184 144 122 126 144 149 152 157 166 172
359 358 352 353 347 343 343 339 336 331 330 332 324 310 256 299 37 332 294 188 176 169 168 136 56 339 215 236 139 193 236 283 349 10 86 135 127 123 144 148 153 160 167 177 181
0 360 354 350 344 343 343 335 329 330 327 338 329 287 235 171 42 335 331 172 164 155 166 29 13 233 173 41 258 302 79 309 309 75 42 68 98 120 148 152 159 171 178 187 190
1 357 351 349 344 343 338 333 328 323 315 331 350 298 234 159 244 268 42 142 152 166 161 29 6 129 207 195 169 319 73 57 152 224 46 50 106 121 148 160 171 183 190 195 198
358 358 351 345 343 344 339 342 347 328 315 320 36 358 259 198 236 223 226 144 135 197 267 297 332 210 227 82 44 163 246 136 124 147 78 312 233 243 127 209 183 196 199 199 187
354 355 351 344 341 349 353 349 332 332 354 217 263 310 237 246 229 184 200 203 250 207 226 226 106 48 53 101 202 207 215 163 158 161 130 166 213 272 212 281 212 202 205 189 174
349 350 351 344 338 354 42 40 9 50 318 269 287 281 337 160 154 198 191 222 242 205 167 207 85 206 223 183 230 279 196 179 97 147 127 167 168 213 228 228 224 208 204 182 180
347 346 348 345 336 1 29 35 23 338 307 292 274 276 281 205 167 210 200 212 177 192 185 12 228 234 240 235 242 268 213 113 56 191 112 178 211 191 217 226 224 199 202 196 186
345 343 345 347 1 59 17 34 20 341 320 292 242 242 234 174 184 211 215 218 113 203 193 169 240 232 228 276 283 214 193 200 159 170 32 132 305 209 228 210 218 211 204 205 190
342 341 343 355 43 1 41 26 354 330 55 281 176 248 225 222 278 223 201 199 228 203 219 216 258 232 248 248 180 239 212 167 135 76 261 193 228 225 216 202 212 211 214 216 205
341 335 339 327 291 289 359 56 338 310 47 174 201 183 183 193 49 204 202 201 234 262 56 257 277 253 235 235 181 240 164 179 170 165 144 207 2 240 156 209 228 228 225 221 218
338 330 327 313 274 17 249 307 333 50 277 228 167 154 103 213 246 180 186 208 233 243 222 237 267 203 219 247 209 143 102 48 65 155 158 225 155 254 182 209 206 231 222 206 226
336 326 314 282 169 99 316 338 49 127 334 199 182 164 158 228 189 170 173 208 179 33 323 319 283 276 255 178 351 75 66 10 5 28 216 236 150 236 207 223 195 203 222 209 218
337 323 303 248 193 201 346 54 132 246 245 238 159 131 172 184 224 201 144 198 256 115 57 215 324 161 278 168 171 175 138 150 191 185 243 108 226 251 229 234 205 192 200 213 201
339 332 302 166 183 186 58 82 210 230 334 356 57 116 252 227 179 146 195 203 212 168 182 192 277 286 224 205 116 287 53 188 111 347 47 263 302 323 356 203 183 180 187 200 188
344 335 265 147 151 160 81 231 253 273 323 337 173 163 195 226 150 157 194 220 230 190 170 224 286 243 260 150 103 143 176 112 7 179 224 301 57 328 340 336 107 95 159 163 177
345 347 140 157 150 188 167 231 286 288 311 341 240 286 159 234 198 193 199 236 144 131 122 128 103 293 68 146 182 4 25 67 127 142 163 259 293 351 4 47 77 80 84 132 150
2 348 169 169 168 197 184 216 262 291 307 293 260 201 204 261 261 244 187 186 164 159 133 193 134 322 271 291 172 159 183 143 123 267 120 156 243 315 13 47 64 58 60 71 87
332 282 200 210 178 259 273 274 269 280 279 250 239 209 207 243 311 229 130 216 162 111 159 192 37 26 340 358 9 28 314 157 126 87 181 121 219 111 65 56 57 49 43 51 72
320 334 313 226 251 130 358 287 299 305 279 316 241 109 13 281 179 199 178 172 130 117 116 99 113 146 188 195 243 308 314 260 123 102 167 200 137 105 72 79 75 62 54 36 50
266 258 343 291 335 327 280 283 318 326 324 340 310 168 147 302 299 158 219 96 48 135 80 105 140 151 201 210 300 299 315 323 173 161 134 197 179 148 175 101 102 93 74 61 15
277 333 338 302 294 313 291 265 288 320 358 319 357 331 227 151 210 216 153 171 180 210 115 31 183 139 250 282 9 310 348 30 75 117 103 142 105 132 137 117 109 104 96 70 31
231 260 300 275 317 12 242 333 336 355 317 339 312 18 352 170 112 11 197 184 177 145 132 114 122 89 249 302 29 342 82 97 62 20 139 151 184 135 95 92 102 99 92 105 178
Height
1519 1517 1514 1511 1509 1507 1505 1503 1501 1499 1497 1496 1495 1495 1494 1493 1494 1494 1496 1499 1501 1502 1504 1506 1509 1512 1515 1521 1522 1514 1522 1521 1506 1503 1503 1502 1504 1515 1513 1518 1524 1523 1525 1529 1533
1518 1515 1513 1511 1508 1506 1504 1502 1500 1498 1497 1496 1494 1493 1493 1492 1492 1493 1496 1497 1499 1502 1504 1506 1509 1509 1512 1512 1512 1515 1520 1510 1502 1499 1499 1500 1501 1510 1517 1522 1526 1527 1530 1532 1535
1517 1514 1511 1509 1506 1505 1503 1501 1499 1497 1496 1494 1493 1492 1491 1491 1492 1493 1494 1496 1498 1501 1504 1505 1507 1508 1508 1510 1513 1516 1516 1507 1499 1501 1504 1499 1504 1508 1513 1522 1519 1524 1529 1533 1536
1516 1512 1510 1507 1505 1502 1500 1498 1497 1496 1495 1493 1492 1491 1491 1491 1495 1492 1493 1495 1497 1499 1503 1505 1507 1507 1507 1509 1511 1515 1508 1508 1502 1502 1504 1502 1506 1510 1508 1515 1518 1524 1527 1532 1536
1515 1511 1508 1506 1504 1501 1499 1497 1496 1495 1493 1492 1491 1491 1491 1491 1491 1491 1492 1493 1495 1498 1501 1503 1505 1507 1506 1501 1509 1512 1506 1504 1504 1500 1500 1504 1504 1509 1515 1519 1523 1525 1531 1533 1535
1514 1511 1507 1505 1502 1500 1498 1496 1495 1494 1493 1492 1491 1491 1491 1492 1491 1491 1491 1491 1494 1497 1499 1502 1503 1505 1503 1500 1503 1502 1503 1499 1499 1497 1494 1500 1506 1508 1521 1522 1526 1528 1530 1532 1534
1514 1510 1507 1504 1501 1499 1497 1495 1494 1493 1493 1492 1491 1491 1491 1491 1490 1491 1490 1491 1494 1496 1499 1503 1502 1505 1503 1506 1499 1497 1506 1503 1505 1504 1514 1513 1517 1518 1521 1525 1527 1529 1530 1531 1533
1514 1510 1506 1503 1500 1498 1495 1494 1493 1492 1492 1491 1491 1490 1488 1490 1490 1491 1491 1492 1494 1497 1499 1500 1503 1503 1503 1505 1504 1505 1511 1521 1512 1509 1515 1514 1535 1525 1527 1526 1527 1529 1529 1530 1533
1513 1509 1506 1502 1498 1496 1495 1493 1492 1491 1491 1491 1492 1490 1488 1488 1489 1490 1492 1494 1495 1496 1498 1500 1501 1501 1502 1506 1516 1514 1525 1516 1516 1509 1510 1536 1535 1526 1525 1528 1527 1528 1529 1528 1530
1511 1508 1504 1501 1497 1495 1494 1493 1492 1491 1491 1492 1492 1494 1487 1486 1486 1488 1491 1494 1496 1497 1498 1499 1500 1503 1507 1515 1535 1522 1517 1511 1513 1517 1514 1530 1534 1524 1521 1526 1526 1525 1528 1528 1529
1509 1506 1503 1500 1496 1494 1494 1492 1495 1494 1490 1490 1489 1489 1486 1487 1487 1489 1490 1493 1495 1497 1501 1498 1508 1514 1503 1505 1501 1502 1506 1507 1507 1508 1517 1516 1521 1520 1517 1520 1523 1523 1526 1526 1528
1508 1504 1501 1498 1496 1495 1495 1495 1495 1497 1490 1485 1484 1485 1484 1486 1488 1489 1490 1493 1493 1499 1498 1506 1513 1498 1495 1498 1501 1502 1507 1511 1510 1505 1508 1519 1517 1515 1518 1516 1520 1518 1522 1526 1527
1506 1503 1499 1497 1495 1495 1495 1495 1495 1494 1492 1483 1482 1482 1484 1486 1486 1486 1489 1491 1492 1497 1499 1510 1497 1492 1496 1495 1499 1501 1505 1504 1505 1500 1506 1513 1525 1520 1516 1514 1514 1513 1518 1522 1524
1505 1502 1498 1495 1497 1495 1495 1495 1494 1493 1504 1488 1480 1481 1483 1485 1485 1485 1487 1491 1492 1496 1497 1501 1487 1492 1494 1498 1496 1510 1492 1493 1497 1512 1534 1508 1540 1519 1511 1507 1505 1506 1511 1516 1522
1504 1501 1498 1495 1494 1494 1495 1492 1492 1492 1518 1480 1479 1478 1479 1483 1484 1483 1486 1488 1491 1492 1495 1499 1490 1491 1494 1491 1487 1495 1483 1490 1492 1508 1514 1515 1523 1509 1504 1510 1501 1501 1503 1510 1519
1502 1499 1496 1495 1493 1494 1492 1491 1492 1507 1514 1482 1475 1476 1480 1481 1481 1481 1485 1487 1487 1489 1489 1489 1482 1484 1484 1478 1478 1478 1487 1497 1500 1513 1531 1511 1518 1513 1507 1491 1490 1491 1495 1503 1512
1499 1496 1492 1492 1493 1493 1492 1491 1507 1517 1479 1482 1479 1476 1480 1482 1481 1482 1486 1490 1499 1503 1504 1490 1483 1477 1476 1480 1477 1484 1505 1539 1538 1541 1541 1504 1518 1498 1480 1475 1473 1483 1489 1493 1501
1495 1492 1489 1489 1491 1492 1492 1495 1510 1489 1482 1470 1473 1477 1484 1479 1482 1483 1487 1495 1488 1494 1508 1511 1510 1479 1472 1477 1485 1487 1501 1536 1542 1552 1531 1507 1520 1490 1464 1457 1463 1472 1478 1486 1491
1492 1489 1486 1487 1489 1491 1493 1511 1504 1486 1476 1479 1475 1484 1485 1477 1480 1483 1488 1492 1484 1487 1505 1506 1500 1472 1470 1470 1476 1488 1504 1496 1522 1526 1534 1519 1495 1472 1470 1458 1461 1472 1478 1485 1488
1490 1486 1485 1488 1488 1491 1495 1504 1490 1478 1477 1475 1481 1479 1490 1481 1485 1486 1489 1477 1479 1478 1480 1490 1503 1479 1468 1469 1475 1482 1483 1510 1524 1534 1538 1527 1515 1515 1492 1478 1466 1474 1481 1486 1490
1491 1487 1486 1488 1489 1491 1503 1498 1483 1475 1478 1478 1474 1478 1479 1481 1481 1485 1483 1473 1472 1474 1476 1482 1495 1490 1471 1478 1489 1490 1496 1501 1512 1523 1538 1543 1532 1513 1507 1488 1488 1487 1488 1493 1497
1492 1491 1487 1487 1491 1490 1495 1485 1479 1474 1473 1474 1468 1469 1473 1474 1475 1480 1476 1469 1466 1469 1480 1478 1497 1505 1489 1470 1468 1479 1488 1498 1527 1521 1524 1524 1531 1515 1510 1500 1496 1500 1500 1498 1499
1494 1488 1485 1486 1493 1492 1483 1481 1479 1475 1472 1470 1468 1465 1464 1470 1477 1472 1469 1465 1464 1466 1476 1477 1502 1518 1503 1486 1481 1486 1482 1486 1501 1511 1521 1527 1531 1516 1509 1506 1503 1504 1507 1504 1499
1496 1493 1482 1481 1481 1482 1487 1482 1479 1472 1468 1467 1465 1460 1464 1467 1467 1471 1470 1465 1464 1465 1468 1472 1493 1506 1523 1509 1499 1497 1489 1483 1493 1518 1520 1515 1517 1518 1511 1511 1507 1513 1510 1512 1511
1497 1491 1487 1488 1483 1485 1484 1480 1478 1475 1466 1464 1463 1459 1464 1471 1466 1470 1471 1467 1466 1467 1468 1475 1496 1492 1494 1493 1489 1489 1485 1478 1484 1488 1503 1505 1507 1514 1516 1510 1519 1520 1518 1518 1523
1496 1493 1489 1485 1482 1482 1480 1479 1477 1472 1473 1469 1469 1464 1459 1465 1466 1467 1467 1468 1469 1469 1471 1475 1494 1487 1492 1486 1488 1490 1482 1478 1475 1483 1490 1501 1503 1508 1514 1516 1519 1518 1515 1521 1527
1492 1491 1490 1485 1482 1483 1480 1477 1476 1474 1467 1467 1464 1463 1465 1461 1458 1458 1455 1458 1459 1466 1474 1479 1490 1503 1507 1488 1492 1500 1489 1487 1488 1484 1487 1501 1497 1500 1507 1510 1513 1515 1509 1525 1545